STARLINK-33820 (63584 NORAD) Tracking and Keplerian Element Data

This shows tracking and keplerian element data for the satellite.

Feedback or suggestion? Click here.




ElementValue
Catalog63584
NameSTARLINK-33820
Epoch Orbit3968
Epoch Day354.23260971
Epoch Year2025
RAAN49.9765
Inclination42.998
Eccentricity0.0001426
Argument of Perigee252.3602
Mean Anonmoly107.7094
Mean Motion15.275906
Decay Rate0.00015035
L11 63584U 25076R 25354.23260971 .00015035 00000+0 55459-3 0 9999
L22 63584 42.9980 49.9765 0001426 252.3602 107.7094 15.27590600 39682



Live tracking and technical data element details for STARLINK-33820 (NORAD 63584). STARLINK-33820 can be tracked NOW for your location showing map with azimuth and elevation plus other details from your city location.







IsCatalogInMostPopularTable: catalog: 63584, numindb: 8
Update: records affected: 1



GetName: 63584 STARLINK-33820

Hit Count: updated at: Tue, 21 Apr 2026 19:26:36 GMT